N6EQ Weather Reports


Display with metric or nautical units.
time (UTC)temp
F
wind
direction
speed
MPH
gust
MPH
rain 1hr
in
rain 24hr
in
rain mn
in
humidity
%
barometer
mb
20260509014544 101 203 7.0 12.0 0.00 0.00 0.00 10 945.2
20260509013049 101 157 9.0 16.0 0.00 0.00 0.00 10 945.2
20260509011554 102 134 4.0 13.0 0.00 0.00 0.00 10 945.3
20260509010046 102 230 10.0 15.0 0.00 0.00 0.00 10 945.3
20260509004548 102 206 2.0 16.0 0.00 0.00 0.00 10 945.5
20260509003040 102 143 6.0 11.0 0.00 0.00 0.00 10 945.5
20260509001537 102 240 11.0 17.0 0.00 0.00 0.00 10 945.6
20260509000037 103 244 5.0 15.0 0.00 0.00 0.00 10 945.8
20260508234534 102 284 4.0 16.0 0.00 0.00 0.00 10 945.9
20260508233033 102 277 10.0 16.0 0.00 0.00 0.00 11 946.0
20260508231531 102 212 3.0 8.0 0.00 0.00 0.00 10 946.1
20260508230030 102 300 3.0 11.0 0.00 0.00 0.00 10 946.3
20260508224528 102 220 5.0 11.0 0.00 0.00 0.00 10 946.4
20260508223039 102 206 0.0 10.0 0.00 0.00 0.00 10 946.6
20260508221524 102 109 1.0 4.0 0.00 0.00 0.00 9 946.9
20260508220023 102 215 0.0 6.0 0.00 0.00 0.00 10 947.2
20260508214519 100 257 1.0 13.0 0.00 0.00 0.00 10 947.4
20260508213017 101 280 1.0 9.0 0.00 0.00 0.00 10 947.6
20260508211515 100 184 4.0 8.0 0.00 0.00 0.00 11 947.8
20260508210012 100 238 5.0 11.0 0.00 0.00 0.00 11 948.1
20260508204520 100 0.0 8.0 0.00 0.00 0.00 11 948.3
20260508203010 100 4.0 6.0 0.00 0.00 0.00 11 948.4
20260508201508 99 1.0 10.0 0.00 0.00 0.00 12 948.7
20260508200005 97 212 1.0 11.0 0.00 0.00 0.00 13 948.9
20260508194506 97 213 4.0 8.0 0.00 0.00 0.00 13 949.1
20260508193001 95 226 6.0 10.0 0.00 0.00 0.00 14 949.3
20260508191602 95 5.0 11.0 0.00 0.00 0.00 14 949.5
20260508190056 94 5.0 9.0 0.00 0.00 0.00 14 949.6
20260508184607 93 181 5.0 11.0 0.00 0.00 0.00 15 949.9
20260508183052 92 3.0 12.0 0.00 0.00 0.00 15 950.0
20260508181559 91 244 5.0 8.0 0.00 0.00 0.00 15 950.2
20260508180047 90 211 6.0 12.0 0.00 0.00 0.00 16 950.3
20260508174545 89 3.0 9.0 0.00 0.00 0.00 16 950.4
20260508173042 88 197 4.0 9.0 0.00 0.00 0.00 16 950.5
20260508171544 87 243 4.0 12.0 0.00 0.00 0.00 16 950.5
20260508170042 87 233 5.0 10.0 0.00 0.00 0.00 16 950.5
20260508164536 86 3.0 7.0 0.00 0.00 0.00 16 950.6
20260508163040 85 228 1.0 5.0 0.00 0.00 0.00 16 950.7
20260508161533 84 0.0 4.0 0.00 0.00 0.00 17 950.7
20260508160054 81 219 0.0 1.0 0.00 0.00 0.00 17 950.7
20260508154533 80 241 0.0 4.0 0.00 0.00 0.00 17 950.7
20260508153037 79 295 2.0 5.0 0.00 0.00 0.00 17 950.7
20260508151533 81 283 0.0 3.0 0.00 0.00 0.00 17 950.6
20260508150035 83 0.0 0.0 0.00 0.00 0.00 16 950.7
20260508144526 84 0.0 0.0 0.00 0.00 0.00 16 950.7
20260508143030 82 0.0 0.0 0.00 0.00 0.00 16 950.6
20260508141520 79 0.0 1.0 0.00 0.00 0.00 18 950.4
20260508140019 79 0.0 0.0 0.00 0.00 0.00 18 950.2
20260508134527 77 104 0.0 0.0 0.00 0.00 0.00 19 950.0
20260508133017 75 87 0.0 3.0 0.00 0.00 0.00 19 949.9
20260508131512 75 84 0.0 3.0 0.00 0.00 0.00 20 949.6
20260508130010 74 84 0.0 1.0 0.00 0.00 0.00 20 949.5
20260508124511 74 83 0.0 3.0 0.00 0.00 0.00 20 949.4
20260508123009 75 84 0.0 4.0 0.00 0.00 0.00 19 949.1
20260508121514 75 83 0.0 2.0 0.00 0.00 0.00 19 949.1
20260508120005 75 92 1.0 3.0 0.00 0.00 0.00 18 949.0
20260508114503 75 108 0.0 4.0 0.00 0.00 0.00 19 948.9
20260508113108 75 103 4.0 7.0 0.00 0.00 0.00 18 948.8
20260508111609 75 72 2.0 4.0 0.00 0.00 0.00 18 948.8
20260508104556 76 79 2.0 6.0 0.00 0.00 0.00 16 948.7
20260508103058 77 80 0.0 5.0 0.00 0.00 0.00 16 948.7
20260508101552 78 101 1.0 3.0 0.00 0.00 0.00 16 948.6
20260508100048 79 146 0.0 2.0 0.00 0.00 0.00 15 948.6
20260508094600 80 225 4.0 8.0 0.00 0.00 0.00 15 948.5
20260508093047 81 94 5.0 12.0 0.00 0.00 0.00 14 948.2
20260508091545 81 86 4.0 8.0 0.00 0.00 0.00 14 948.2
20260508090044 81 83 5.0 8.0 0.00 0.00 0.00 13 948.3
20260508084541 79 96 7.0 10.0 0.00 0.00 0.00 14 948.5
20260508083115 81 110 7.0 9.0 0.00 0.00 0.00 13 948.6
20260508081541 80 139 1.0 5.0 0.00 0.00 0.00 13 948.8
20260508080035 81 80 6.0 9.0 0.00 0.00 0.00 13 948.5
20260508074536 81 81 5.0 9.0 0.00 0.00 0.00 13 948.5
20260508073033 81 83 6.0 10.0 0.00 0.00 0.00 12 948.6
20260508071533 82 103 5.0 9.0 0.00 0.00 0.00 12 948.6
20260508070027 82 82 5.0 8.0 0.00 0.00 0.00 12 948.5
20260508064542 82 85 4.0 9.0 0.00 0.00 0.00 12 948.5
20260508063026 82 97 5.0 10.0 0.00 0.00 0.00 11 948.5
20260508061525 82 105 5.0 10.0 0.00 0.00 0.00 11 948.6
20260508060025 82 94 7.0 10.0 0.00 0.00 0.00 11 948.5
20260508054524 82 77 6.0 10.0 0.00 0.00 0.00 11 948.6
20260508053025 82 77 5.0 9.0 0.00 0.00 0.00 11 948.6
20260508051525 83 4.0 8.0 0.00 0.00 0.00 11 948.6
20260508050027 83 110 3.0 7.0 0.00 0.00 0.00 11 948.5
20260508044522 85 83 4.0 8.0 0.00 0.00 0.00 10 948.6
20260508043021 86 96 4.0 6.0 0.00 0.00 0.00 10 948.6
20260508041520 84 106 3.0 6.0 0.00 0.00 0.00 10 948.6
20260508040020 86 78 5.0 8.0 0.00 0.00 0.00 10 948.4
20260508034519 86 82 4.0 7.0 0.00 0.00 0.00 9 948.2
20260508033019 86 86 5.0 7.0 0.00 0.00 0.00 9 948.1
20260508031518 88 81 2.0 6.0 0.00 0.00 0.00 9 947.8
20260508030016 90 84 0.0 1.0 0.00 0.00 0.00 9 947.7
20260508024524 91 360 0.0 0.0 0.00 0.00 0.00 9 947.5
20260508023020 93 359 0.0 2.0 0.00 0.00 0.00 8 947.4
20260508021515 94 1.0 6.0 0.00 0.00 0.00 8 947.2
20260508020015 95 8 5.0 10.0 0.00 0.00 0.00 8 947.1